Regional Weather Roundup
Issued by NWS Charleston, SC

Current Version | Previous Version | Graphics & Text | Print | Product List | Glossary On
Versions: 1 2 3 4 5 6 7 8 9 10 11 12 13 14 15 16 17 18 19 20 21 22 23 24 25 26 27 28 29 30 31 32 33 34 35 36 37 38 39 40 41 42 43 44 45 46 47 48 49 50
000
ASUS42 KCHS 241226
RWRCHS

REGIONAL WEATHER ROUNDUP
NATIONAL WEATHER SERVICE CHARLESTON SC
800 AM EDT SUN MAY 24 2015

NOTE: "FAIR" INDICATES FEW OR NO CLOUDS BELOW 12,000 FEET WITH NO
SIGNIFICANT WEATHER AND/OR OBSTRUCTIONS TO VISIBILITY.

NOT ALL STATIONS ARE QUALITY CONTROLLED BY THE NATIONAL
WEATHER SERVICE. USE DATA WITH CAUTION...ESPECIALLY
DEWPOINT OBSERVATIONS.

SCZ027-030-031-034>040-042>050-241300-
...SOUTHEAST SOUTH CAROLINA...

CITY           SKY/WX    TMP DP  RH WIND       PRES   REMARKS
N CHARLESTON   MOSUNNY   69  60  73 NE5       30.36R
6HR MIN TEMP:  59; 6HR MAX TEMP:  69;

WATERFRONT PAR   N/A     75  61  61 E12       30.33R
MOUNT PLEASANT LGT RAIN  73  61  64 E6        30.36S
JOHNS ISLAND   MOSUNNY   75  61  60 E7        30.36S
PINOPOLIS      NOT AVBL
MONCKS CORNER  FAIR      70  59  68 NE5       30.38R
SUMMERVILLE    FAIR      64  63  94 CALM      30.38R
BEAUFORT MCAS  SUNNY     71  63  75 NE6       30.35R
6HR MIN TEMP:  66; 6HR MAX TEMP:  74;

BEAUFORT ARPT  FAIR      73  63  68 CALM      30.34S
HILTON HEAD IS SUNNY     75  63  64 NE7       30.34S
WALTERBORO     SUNNY     68  59  73 NE6       30.37S
ALLENDALE      FAIR      68  61  77 CALM      30.36S

...SOUTHERN MIDLANDS AND PEE DEE...

CITY           SKY/WX    TMP DP  RH WIND       PRES   REMARKS
GEORGETOWN     NOT AVBL
KINGSTREE      NOT AVBL
ORANGEBURG     SUNNY     66  60  81 NE5       30.39R
6HR MIN TEMP:  59; 6HR MAX TEMP:  66;

BARNWELL       FAIR      66  61  82 NE5       30.38S
AIKEN          FAIR      63  55  77 E6        30.41F
MANNING        FAIR      63  54  72 CALM      30.39S
COLUMBIA       PTSUNNY   63  56  78 SE3       30.39R
6HR MIN TEMP:  56; 6HR MAX TEMP:  64;

SUMTER         SUNNY     64  59  86 NE6       30.38S
6HR MIN TEMP:  56; 6HR MAX TEMP:  64;

FLORENCE       MOSUNNY   64  58  80 NE3       30.41R
6HR MIN TEMP:  57; 6HR MAX TEMP:  64;

MYRTLE BEACH   MOSUNNY   75  57  53 SE14      30.39R
N MYRTLE BEACH SUNNY     71  59  65 N6        30.38R
6HR MIN TEMP:  62; 6HR MAX TEMP:  73;


$$

GAZ063-065-086>088-099>101-113>116-118-119-134>141-150-241300-
...SOUTHEAST GEORGIA...

CITY           SKY/WX    TMP DP  RH WIND       PRES   REMARKS
SAVANNAH ARPT  PTSUNNY   71  62  73 NE3       30.34R
6HR MIN TEMP:  63; 6HR MAX TEMP:  72;

HUNTER AAF       N/A    N/A N/A N/A MISG        N/A
FORT STEWART   SUNNY     70  64  81 NE3       30.31R
6HR MIN TEMP:  64; 6HR MAX TEMP:  70;

STATESBORO     PTSUNNY   69  67  93 E5        30.35S
SYLVANIA       SUNNY     69  64  84 E3        30.36S
CLAXTON        FAIR      70  64  83 E5        30.34S

...CSRA...CENTRAL AND FAR SOUTHEAST GEORGIA...

CITY           SKY/WX    TMP DP  RH WIND       PRES   REMARKS
THOMSON        SUNNY     68  64  85 E6        30.41S
AUGUSTA-BUSH   SUNNY     64  61  90 CALM      30.37R
6HR MIN TEMP:  56; 6HR MAX TEMP:  64;

AUGUSTA-DANIEL SUNNY     67  57  70 E7        30.38R
SWAINSBORO     FAIR      70  64  83 E6        30.34F
VIDALIA        SUNNY     72  63  73 E8        30.33F
EASTMAN        FAIR      71  66  84 E7        30.35S
HAZLEHURST     FAIR      71  66  83 E3        30.31S
ALMA           SUNNY     68  64  87 E6        30.31R
6HR MIN TEMP:  64; 6HR MAX TEMP:  68;

WAYCROSS       SUNNY     72  68  88 E7        30.30S
JESUP          FAIR      75  70  83 E5        30.32S
BAXLEY         FAIR      72  66  83 E6        30.31S
BRUNSWICK      SUNNY     77  63  61 E8        30.31F
SAINT SIMONS   NOT AVBL

$$

SCZ027-028-034-036>038-045-046-048>050-GAZ119-141-241300-
...LAKE AND SUPPLEMENTAL COASTAL OBSERVATIONS...

STATION/POSITION TIME  TEMP    WIND        PRES    WAVE   SWELL
                       AIR SEA DIR/SP/G            HT/PER HT/PER/DIR
                 (UTC) (F)     (DEG/KT/KT) (MB)    (FT/S) (FT/S/D)
UPR LAKE MARION  NOT AVBL
WINYAH BAY       1145   74     110/  9     1027.0S
LAKE MURRAY      1100   63      40/  1/  3 1028.4R
ACE BASIN NERRS  NOT AVBL
FORT PULASKI     1200   75 78   70/ 13/ 16 1027.5R
SAPELO ISLAND    1200   77      80/  6     1026.0S

$$

ANZ835-935-AMZ111-154-330-350-352-354-370-450-454-472-241300-
...C-MAN AND BUOY OBSERVATIONS...

STATION/POSITION TIME  TEMP    WIND        PRES    WAVE   SWELL
                       AIR SEA DIR/SP/G            HT/PER HT/PER/DIR
                 (UTC) (F)     (DEG/KT/KT) (MB)    (FT/S) (FT/S/D)
BUOY 41004       1150   75 75   90/ 16/ 17 1027.0R   5/ 7   2/11
BUOY 41008       1150   75 74   90/ 10/ 12 1026.6R   5/ 8   3/100/ 8
FOLLY BEACH CMAN 1200   74      90/ 13/ 15 1028.0R
CAPERS NEARSHORE 1108   74     110/ 14/ 19 1027.8R
FRIPP NEARSHORE  1100   75      90/ 14/ 16 1026.3R


STATION/POSITION TIME  TEMP    WIND        PRES    WAVE   SWELL
                       AIR SEA DIR/SP/G            HT/PER HT/PER/DIR
                 (UTC) (F)     (DEG/KT/KT) (MB)    (FT/S) (FT/S/D)
5E ST. MARYS GA  1121      77                N/A     5/ 6
FRYING PAN BUOY  1150   75 73  110/ 12/ 14 1029.2R   4/ 6   3/120/ 6
BUOY 41025       1150   73 77   60/  4/  6 1029.8R   2/ 6   2/ 60/ 6
CAPE LOOKOUT NC  1200   74      70/  3/  4 1029.4R
BUOY 41002       1150   72 74   70/ 19/ 21 1027.5R   6/ 6
BUOY 41010       1120   73 80   50/  6/ 10 1024.0R
ST AUGUSTINE FL  1200   76 75   70/ 16/ 17 1025.5R


$$



USA.gov is the U.S. government's official web portal to all federal, state and local government web resources and services.